Location: Cheyres
(46.8153°N, 6.7877°E)
Time: 04:22:20
(UTC+00:00)

SL-8 Rocket - Pass Details

Date: 11 May 2021
Orbit: 957 x 990 km, 82.9° (Epoch: 18 June)

Event Time Altitude Azimuth Distance (km) Brightness Sun altitude
Rises 22:30:55 0° 349° (N) 3,716 8.5 -23.7°
Reaches altitude 10° 22:33:27 10° 348° (NNW) 2,763 7.5 -23.9°
Maximum altitude 22:39:46 74° 265° (W) 1,030 4.0 -24.1°
Enters shadow 22:41:32 49° 195° (SSW) 1,254 4.2 -24.2°
